Weather History for KHLC - October, 2014

Change the Weather History Date:

Thursday, October 30, 2014

  Actual Average Record
Temperature  
Mean Temperature 56 °F 48 °F  
Max Temperature 70 °F 62 °F 89 °F (1950)
Min Temperature 41 °F 34 °F 9 °F (1917)
Degree Days  
Heating Degree Days 8    
Growing Degree Days 8 (Base 50)    
Moisture  
Dew Point 30 °F    
Average Humidity 39    
Maximum Humidity 63    
Minimum Humidity 23    
Precipitation  
Precipitation 0.00 in 0.03 in 0.01 in (2002)
Month to date precipitation 0.83 1.49  
Year to date precipitation 21.43 21.25  
Sea Level Pressure  
Sea Level Pressure 30.20 in    
Wind  
Wind Speed 13 mph (NNW)    
Max Wind Speed 21 mph    
Max Gust Speed 30 mph    
Visibility 10 miles    
Events Rain    
T = Trace of Precipitation, MM = Missing Value Source: NWS Daily Summary

Daily Weather History Graph

Daily Weather History Graph

Search for Another Location

Airport or City:

Trip Planner

Search our weather history database for the weather conditions in past years. The results will help you decide how hot, cold, wet, or windy it might be!

Date:

Astronomy

Oct. 30, 2014 Rise Set
Actual Time 8:05 AM CDT 6:40 PM CDT
Civil Twilight 7:37 AM CDT 7:07 PM CDT
Nautical Twilight 7:05 AM CDT 7:39 PM CDT
Astronomical Twilight 6:34 AM CDT 8:10 PM CDT
Moon 2:10 PM CDT (10/30) No Moon Set
Length of Visible Light 11h 30m
Length of Day
10h 35m
Waxing Crescent, 45% of the Moon is Illuminated
Oct 30
Waxing Crescent
Oct 30
First Quarter
Nov 6
Full
Nov 14
Last Quarter
Nov 22
New

Hourly Weather History & Observations

Time (CDT) Temp. Windchill Dew Point Humidity Pressure Visibility Wind Dir Wind Speed Gust Speed Precip Events Conditions
12:53 AM 53.1 °F - 30.9 °F 43% 29.98 in 10.0 mi WSW 8.1 mph - N/A   Clear
1:53 AM 55.9 °F - 28.0 °F 34% 29.98 in 10.0 mi NNW 17.3 mph - N/A   Clear
2:53 AM 54.0 °F - 27.0 °F 35% 30.01 in 10.0 mi NNW 15.0 mph - 0.00 in Rain Light Rain
3:53 AM 50.0 °F - 27.0 °F 41% 30.04 in 10.0 mi NNW 13.8 mph - 0.00 in Rain Light Rain
4:53 AM 48.9 °F - 27.0 °F 43% 30.07 in 10.0 mi WNW 10.4 mph - 0.00 in   Clear
5:53 AM 48.0 °F - 27.0 °F 44% 30.11 in 10.0 mi WNW 13.8 mph - N/A   Clear
6:53 AM 48.0 °F - 27.0 °F 44% 30.14 in 10.0 mi NW 13.8 mph - N/A   Clear
7:53 AM 46.0 °F 41.0 °F 27.0 °F 47% 30.18 in 10.0 mi WNW 10.4 mph - N/A   Clear
8:53 AM 48.0 °F - 28.0 °F 46% 30.22 in 10.0 mi NW 10.4 mph - N/A   Clear
9:53 AM 54.0 °F - 30.0 °F 40% 30.24 in 10.0 mi NNW 12.7 mph - N/A   Clear
10:53 AM 57.9 °F - 30.9 °F 36% 30.24 in 10.0 mi NW 15.0 mph - 0.00 in Rain Light Rain
11:53 AM 63.0 °F - 33.1 °F 33% 30.24 in 10.0 mi North 18.4 mph 26.5 mph 0.00 in Rain Light Rain
12:53 PM 66.0 °F - 33.1 °F 29% 30.23 in 10.0 mi NW 17.3 mph 23.0 mph 0.00 in Rain Light Rain
1:53 PM 68.0 °F - 30.9 °F 25% 30.20 in 10.0 mi NNW 19.6 mph 28.8 mph 0.00 in   Clear
2:53 PM 69.1 °F - 30.0 °F 23% 30.19 in 10.0 mi NW 19.6 mph 27.6 mph 0.00 in   Clear
3:53 PM 69.1 °F - 30.0 °F 23% 30.19 in 10.0 mi NNW 20.7 mph 29.9 mph 0.00 in   Clear
4:53 PM 68.0 °F - 30.0 °F 24% 30.20 in 10.0 mi NNW 16.1 mph 25.3 mph N/A   Clear
5:53 PM 64.9 °F - 30.0 °F 27% 30.23 in 10.0 mi North 16.1 mph - N/A   Clear
6:53 PM 57.9 °F - 30.9 °F 36% 30.27 in 10.0 mi North 10.4 mph - N/A   Clear
7:53 PM 50.0 °F - 30.0 °F 46% 30.31 in 10.0 mi North 9.2 mph - N/A   Clear
8:53 PM 51.1 °F - 32.0 °F 48% 30.34 in 10.0 mi North 11.5 mph - N/A   Clear
9:53 PM 51.1 °F - 32.0 °F 48% 30.36 in 10.0 mi NNE 16.1 mph - N/A   Clear
10:53 PM 48.0 °F - 33.1 °F 56% 30.39 in 10.0 mi NNE 15.0 mph - N/A   Clear
11:53 PM 44.1 °F 38.1 °F 32.0 °F 63% 30.41 in 10.0 mi NNE 11.5 mph - N/A   Clear